Regional Weather Roundup
Issued by NWS Pendleton, OR

Home | Current Version | Previous Version | Text Only | Print | Product List | Glossary On
Versions: 1 2 3 4 5 6 7 8 9 10 11 12 13 14 15 16 17 18 19 20 21 22 23 24 25 26 27 28 29 30 31 32 33 34 35 36 37 38 39 40 41 42 43 44 45 46 47 48 49 50
000
ASUS46 KPDT 251525
RWRPDT
PENDLETON REGIONAL WEATHER ROUNDUP
NATIONAL WEATHER SERVICE PENDLETON OREGON
800 AM PDT SAT OCT 25 2014

NOTE: FAIR INDICATES FEW OR NO CLOUDS BELOW 12,000 FEET WITH NO
SIGNIFICANT WEATHER AND/OR OBSTRUCTIONS TO VISIBILITY.

# INDICATES UNOFFICIAL STATION AND DATA

WAZ520-251610-
EAST SLOPES OF WASHINGTON CASCADES

CITY            SKY/WX      TMP DP  RH  WIND    PRES   REMARKS
#BULLFROG 2SW   N/A         63  42  46  CALM    29.68F
#BUMPING DAM    N/A         42  N/A N/A NE2     N/A
#CLE ELUM HS    N/A         45  44  96  CALM    29.64F
#CLE ELUM 2NW   N/A         45  44  96  S1      N/A
#CLE ELUM LAKE  N/A         N/A N/A N/A SW8     29.62F
#CLIFFDEL 2NW   N/A         44  44  100 SE1     N/A
#GLENWOOD       N/A         47  46  96  CALM    29.62F
#MANASTASH CYN  N/A         44  42  93  CALM    29.65F
#NELSON         N/A         44  43  96  CALM    29.67F
#NELSON 3SW     N/A         42  41  96  CALM    29.87F
#NILE           N/A         43  42  96  CALM    28.92F
#RONALD 2NW     N/A         44  42  93  E1      29.54F
#SNOWDEN        N/A         46  43  89  CALM    N/A
#TEANAWAY 4NE   N/A         44  44  100 CALM    N/A
#TROUT LAKE 1NE N/A         48  45  89  CALM    29.64S
$$

WAZ521-251610-
SIMCOE HIGHLANDS

CITY            SKY/WX      TMP DP  RH  WIND    PRES   REMARKS
#BICKLETON HS   N/A         43  41  93  N7      29.73F
#CENTERVILLE 4W N/A         46  45  96  CALM    29.39F
#CENTERVILLE 1SWN/A         45  43  93  CALM    29.60F
#GOLDENDALE     N/A         45  45  100 E1      N/A
#GOLDENDALE 1NE N/A         44  44  100 VRB1    N/A
#GOLDENDALE 1S  N/A         44  43  96  CALM    29.61F
#GOLDENDALE 5WNWN/A         45  44  96  W6      29.63F
#GOODNOE HILLS  N/A         47  47  100 SE3     29.57F
#LYLE 6NE       N/A         46  45  96  CALM    29.62S
$$

WAZ026-251610-
KITTITAS VALLEY

CITY            SKY/WX      TMP DP  RH  WIND    PRES   REMARKS
ELLENSBURG AP   CLOUDY      45  41  86  NW6     29.65F
#ELLENSBURG CWU N/A         42  41  96  W2      29.61F
#ELLENSBURG 3NE N/A         42  41  96  N1      29.68F
#ELLENSBURG     N/A         46  46  100 CALM    N/A
#KITTITAS 3S    N/A         42  41  96  CALM    29.65F
#THORP 6N       N/A         46  44  93  CALM    29.68F
$$

WAZ027-251610-
YAKIMA VALLEY

CITY            SKY/WX      TMP DP  RH  WIND    PRES   REMARKS
SUNNYSIDE AP    MOCLDY      41  41  100 CALM    29.64F FOG
YAKIMA AIRPORT  MOCLDY      50  46  86  W5      29.65F
YAKIMA-VAGABOND MOCLDY      48  44  86  E9      29.65F
#COWICHE 1N     N/A         47  44  89  N2      29.80F
#DONALD 2NE     N/A         49  45  86  SW3     29.96F
#GRANDVIEW      N/A         43  41  93  CALM    29.65F
#MABTON         N/A         45  44  96  CALM    29.64F
#MOXEE 2E       N/A         43  43  100 CALM    29.63F
#NACHES 2SW     N/A         48  47  96  CALM    29.67F
#OUTLOOK DOT    N/A         N/A N/A N/A CALM    N/A
#SELAH 8E       N/A         47  43  86  E9      N/A
#TERRACE HTS    N/A         44  42  93  CALM    29.62F
#TOPPENISH      N/A         44  42  93  CALM    29.57F
#WAPATO 4NE     N/A         49  45  86  SW3     29.96F
#WEST VALLEY    N/A         50  45  83  N2      29.63F
#W YAKIMA       N/A         48  45  89  NW2     29.64F
#WHITE SWAN 5E  N/A         50  48  93  CALM    29.65F
#WILEY CITY 3W  N/A         48  34  58  CALM    29.96S
$$

WAZ028-251610-
LOWER COLUMBIA BASIN...WASHINGTON

CITY            SKY/WX      TMP DP  RH  WIND    PRES   REMARKS
HANFORD         MOCLDY      48  44  86  NW9     29.65F
PASCO           FOG         44  44  100 N3      29.66F VSB 1/4
PROSSER AWOS    N/A         43  43  100 N2      29.67F
RICHLAND AWOS   CLOUDY      46  45  96  CALM    29.67F
#BASIN CITY 5SW N/A         47  45  93  CALM    29.65F
#CONNELL 5N     N/A         44  42  93  E2      29.63F
#CONNELL 5NW    N/A         44  42  93  E1      29.60F
#ELTOPIA        N/A         48  46  93  CALM    29.60F
#ELTOPIA 6NW    N/A         44  43  96  NE2     28.62F
#KENNEWICK      N/A         63  42  46  CALM    29.68F
#KENNEWICK 3S   N/A         47  46  96  CALM    29.66F
#PASCO-BROADMOORN/A         46  45  96  CALM    29.56F
#PATERSON       N/A         49  45  86  NE5     29.63F
#PROSSER        N/A         46  44  93  CALM    29.64F
#SAGEMOOR 2W    N/A         45  43  93  CALM    29.51F
#TOUCHET 2S     N/A         50  48  93  CALM    29.63F
#WEST PASCO     N/A         46  42  86  CALM    29.64F
$$

WAZ029-251610-
FOOTHILLS OF THE BLUES...WASHINGTON

CITY            SKY/WX      TMP DP  RH  WIND    PRES   REMARKS
WALLA WALLA AP  FOG         49  48  96  CALM    29.63F VSB 3/4
#LOWDEN 2SE     N/A         50  49  96  CALM    29.60F
#PLEASANT VIEW 1N/A         45  44  96  E1      29.67F
#PRESCOTT       N/A         49  48  96  CALM    29.62F
#SUDBURY        N/A         52  N/A N/A CALM    N/A
#WHITMAN COLLEGEN/A         48  48  100 CALM    29.67F
#WAITSBURG 8N   N/A         46  46  100 CALM    29.59F
#WALLA WALLA 5E N/A         47  46  96  CALM    N/A
#WALLA WALLA U  N/A         49  48  96  CALM    29.63F
#WHITMAN MISSIONN/A         50  49  96  CALM    29.65F
$$

WAZ030-251610-
BLUE MOUNTAINS...WASHINGTON

CITY            SKY/WX      TMP DP  RH  WIND    PRES   REMARKS
$$

ORZ009-041-WAZ024-251610-
COLUMBIA RIVER GORGE

CITY            SKY/WX      TMP DP  RH  WIND    PRES   REMARKS
HOOD RIVER AP   CLOUDY      50  48  93  N3      29.66R
THE DALLES AP   CLOUDY      51  49  93  NW5     29.65S
#ARLINGTON AIRPON/A         48  46  93  E2      29.99S
#ARLINGTON HS   N/A         50  47  89  CALM    29.56F
#CELILO DOT     N/A         52  46  80  CALM    N/A
#LYLE           N/A         52  49  89  N1      29.66S
#MARYHILL 2W    N/A         50  49  96  CALM    N/A
#MOSIER 1S      N/A         49  48  96  CALM    N/A
#MURDOCK        N/A         53  51  93  CALM    29.67S
#RUFUS DOT      N/A         52  46  80  NE5     N/A

$$

ORZ510-251610-
NORTH CENTRAL OREGON

CITY            SKY/WX      TMP DP  RH  WIND    PRES   REMARKS
#CHENOWITH 1W   N/A         46  46  100 CALM    N/A
#COW CYN RST AREN/A         43  N/A N/A N3      N/A
#DUFUR 9E       N/A         45  44  96  E15     29.67F WCI 38
#GRASS VALLEY   N/A         44  44  100 E1      N/A
#GRASS VALLEY 1SN/A         44  43  96  E1      29.66F
#KENT DOT       N/A         43  40  89  CALM    N/A
#MAUPIN SCHOOL  N/A         51  46  83  CALM    28.52F
#MORO SCHOOL    N/A         46  46  100 E3      29.65F
#SHANIKO 5WSW   N/A         41  38  89  CALM    N/A
#SHANIKO 4NW    N/A         42  42  100 CALM    29.61F
#TYGH VALLEY 2NEN/A         50  46  86  CALM    29.63F
#WAPANITIA AIRPON/A         46  45  96  CALM    29.65F
#WASCO DOT      N/A         48  46  93  NE2     N/A
#WASCO 5NE      N/A         46  44  93  CALM    29.63F
$$

ORZ511-251610-
CENTRAL OREGON

CITY            SKY/WX      TMP DP  RH  WIND    PRES   REMARKS
BEND AIRPORT    FOG         43  43  100 CALM    29.64F VSB 1/2
MADRAS AIRPORT  CLOUDY      46  46  100 NE3     29.64F FOG
PRINEVILLE AP   CLOUDY      55  41  59  S22G35  29.63F
REDMOND AIRPORT CLOUDY      44  43  96  NE3     29.62F FOG
#BEND 6E        N/A         42  40  93  CALM    29.59F
#BEND 1SW       N/A         50  43  77  SW1     N/A
#BEND-KIM LN    N/A         45  44  96  S7      29.59F
#CULVER         N/A         45  43  93  CALM    29.59F
#LAKE BILLY CHINN/A         48  48  100 CALM    29.71R
#POWELL BUTTE 3EN/A         43  43  100 W3      N/A
#POWELL BUTTE   N/A         56  39  53  SW8     29.30S
#PRINEVILLE 3N  N/A         41  40  96  NW1     29.57F
#WARM SPRINGS   N/A         49  48  96  CALM    29.62S


ORZ509-251610-
EAST SLOPES OF OREGON CASCADES

CITY            SKY/WX      TMP DP  RH  WIND    PRES   REMARKS
#CAMP SHERMAN   N/A         44  42  93  CALM    29.59R
#LA PINE DOT    N/A         50  32  50  S7      N/A
#LA PINE 4NW    N/A         50  39  66  S2      29.63S
#LAVA BUTTE DOT N/A         50  33  52  SE6     N/A
#SISTERS AIRPOR N/A         43  43  100 CALM    29.91S
#SISTERS ODOT   N/A         43  N/A N/A CALM    N/A
#SISTERS 1NW    N/A         43  42  96  W43     N/A    WCI 31
#SISTERS 3N     N/A         44  41  89  CALM    29.69S
#SUNRIVER       N/A         51  42  71  S3      29.48S
#SUNRIVER AP    N/A         52  41  66  SW13G26 29.55F
#SUTTLE LK DOT  N/A         38  38  100 E25G36  N/A    WCI 27
#TUMALO 3W      N/A         42  41  96  N3      29.51S
#WANOGA BUTTE D N/A         41  37  86  W12     N/A    WCI 34

$$

ORZ044-251610-
LOWER COLUMBIA BASIN...OREGON

CITY            SKY/WX      TMP DP  RH  WIND    PRES   REMARKS
HERMISTON       CLOUDY      49  47  93  N6      29.64F FOG
#BOARDMAN 3W    N/A         52  50  93  NE6     29.32F
#BOARDMAN 8SW   N/A         50  48  93  NE3     29.63F
#ECHO 8SW       N/A         50  45  83  CALM    29.61F
#IONE SCHOOL    N/A         49  41  74  CALM    29.63F
#IRRIGON 4NW    N/A         51  48  89  N3      N/A
#UMATILLA SCHOOLN/A         46  46  100 CALM    29.69F
#UMATILLA       N/A         50  46  86  CALM    29.62F
$$

ORZ507-251610-
NORTHERN FOOTHILLS OF THE BLUES

CITY            SKY/WX      TMP DP  RH  WIND    PRES   REMARKS
PENDLETON AIRPT FOG         47  46  96  CALM    29.62F VSB 1/4
#ADAMS 3WNW     N/A         46  45  96  N2      29.62F
#ATHENA         N/A         45  44  96  CALM    29.64F
#CAYUSE         N/A         45  44  96  CALM    29.62F
#HELIX SCHOOL   N/A         45  44  96  N3      29.60F
#HELIX 3N       N/A         46  45  96  N5      29.61F
#HOLDMAN 5SE    N/A         48  47  96  CALM    29.64F
#HOLDMAN 6E     N/A         46  45  96  S2      29.43F
#M-F FERNDALE   N/A         49  47  93  CALM    29.65F
#M-F GROVE ELEM N/A         48  45  89  CALM    29.62F
#M-FREEWATER 5SEN/A         46  45  96  CALM    29.64F
#PENDLETON DNTN N/A         49  47  93  CALM    28.43F
#PDT AQUATIC CTRN/A         50  47  89  CALM    29.61F
#PDT SUNRIDGE   N/A         47  46  96  CALM    29.64F
#PENDLETON 7NW  N/A         48  45  89  CALM    31.13R
#PILOT ROCK     N/A         46  43  89  CALM    29.65F
#TUTUILLA       N/A         47  45  93  CALM    29.63F
#UMAPINE 2E     N/A         50  49  96  CALM    29.61F
#WESTON SCHOOL  N/A         44  42  93  CALM    29.60F

$$

ORZ508-251610-
SOUTHERN FOOTHILLS OF THE BLUES

CITY            SKY/WX      TMP DP  RH  WIND    PRES   REMARKS
LEXINGTON       CLOUDY      48  48  100 NE7     29.63F FOG
#AJAX           N/A         45  40  82  NE10    29.59F
#CONDON SCHOOL  N/A         43  42  96  CALM    29.60F
#CONDON 5W      N/A         41  40  96  E2      29.59F
#HEPPNER EOC    N/A         46  44  93  CALM    29.57F
#HEPPNER 4NE    N/A         42  41  96  CALM    29.61F
#LEXINGTON 2SE  N/A         49  46  89  CALM    29.59F
#MIKKALO        N/A         47  44  89  E7      29.63F
#OLEX 4N        N/A         48  47  96  E5      29.64F
#RUGGS 5NE      N/A         42  41  96  NE2     29.78S
#RUGGS 2SW      N/A         43  42  96  CALM    29.63F

$$

ORZ502-503-251610-
BLUE MOUNTAINS

CITY            SKY/WX      TMP DP  RH  WIND    PRES   REMARKS
MEACHAM         CLOUDY      48  42  80  SW5     29.70S
#BATTLE MTN DOT N/A         44  39  82  S7      N/A
#HARDMAN 10S    N/A         52  34  50  S3      29.74F
#HEPPNER 15SE   N/A         58  31  36  SE3     29.52F
#LADD CYN SMT   N/A         47  39  74  SE7     N/A
#LADD CREEK ODOTN/A         52   6  15  S7      N/A
#N POWDER DOT   N/A         46  46  100 SE2     N/A
#PIKES PEAK     N/A         66  29  25  S29G41  27.99S
#TOLLGATE       N/A         54  33  45  SW5     29.71F
#TROY SCHOOL    N/A         47  44  89  CALM    29.60F
#UKIAH          N/A         39  38  96  CALM    29.71F
#WESTON 4E      N/A         60  37  42  E12     29.55F
$$

ORZ505-251610-
JOHN DAY BASIN

CITY            SKY/WX      TMP DP  RH  WIND    PRES   REMARKS
JOHN DAY        CLOUDY      64  27  24  S22G36  29.69F
#JOHN DAY KJDY  N/A         55  35  47  CALM    29.84F
#DAYVILLE SCHOOLN/A         64  29  27  S12     29.61F
#MT. VERNON 5SE N/A         60  28  29  NE12    29.65F
#WINLOCK        N/A         51  38  61  CALM    29.74F
$$

ORZ506-251610-
OCHOCO AND JOHN DAY HIGHLANDS

CITY            SKY/WX      TMP DP  RH  WIND    PRES   REMARKS
#BUCK CREEK DOT N/A         49  40  71  SE10    N/A
#HORSE RIDGE DO N/A         54  36  50  S29G44  N/A
#KEYES SMT DOT  N/A         57  28  33  SE18G39 N/A
#PAULINA SCHOOL N/A         54  31  41  SE7     29.71F
#PINE MTN OBS   N/A         44  34  68  SE38G62 N/A    WCI 33
#PRAIRIE CITY   N/A         62  19  19  S10G24  29.62F
#SENECA         N/A         53  N/A N/A S8      N/A
#SENECA 9NW     N/A         38  37  96  CALM    29.73F
$$

ORZ049-251610-
GRANDE RONDE VALLEY

CITY            SKY/WX      TMP DP  RH  WIND    PRES   REMARKS
LA GRANDE       CLOUDY      43  34  70  S5      29.72F
#COVE           N/A         41  41  100 CALM    29.66F
#COVE SCHOOL    N/A         42  40  93  CALM    29.72F
#COVE 6NW       N/A         39  38  96  CALM    29.78F
#ELGIN 3N       N/A         44  43  96  CALM    29.48F
#ELGIN 1E       N/A         44  40  86  CALM    N/A
#IMBLER SCHOOL  N/A         63  35  35  SW3     29.84S
#ISLAND CITY 4N N/A         52  51  96  W1      29.51F
#LADD CYN DOT   N/A         54  41  61  SE12    N/A
#UNION 1S       N/A         42  41  96  CALM    29.62F
$$

ORZ050-251610-
WALLOWA COUNTY

CITY            SKY/WX      TMP DP  RH  WIND    PRES   REMARKS
JOSEPH AIRPORT  CLOUDY      45  39  79  CALM    29.73F
#ENTERPRISE HS  N/A         41  40  96  CALM    29.78F
#IMNAHA 10S     N/A         43  42  96  NE1     29.75F
#JOSEPH 3N      N/A         41  41  100 SW7     29.76F
#JOSEPH 3W      N/A         50  37  61  SW1     29.62F
#LOSTINE        N/A         42  41  96  CALM    29.54F
#MT HOWARD 8000 N/A         46  24  42  S15G31  29.83F WCI 40
#PROMISE 1S     N/A         39  38  96  CALM    29.84F
#SHEEP RDG 7000 N/A         52  22  31  CALM    29.72F
#WALLOWA SCHOOL N/A         43  42  96  CALM    30.67F



$$



USA.gov is the U.S. government's official web portal to all federal, state and local government web resources and services.